| time (UTC) | temp C | wind direction | speed KPH | gust KPH | rain 1hr cm | rain 24hr cm | rain mn cm | humidity % | barometer mb |
| 20260508034807 | 27 | 225 | 0.0 | 0.0 | 0.00 | 0.00 | 0.00 | 54 | 1005.7 |
| 20260508034257 | 27 | 225 | 6.4 | 0.0 | 0.00 | 0.00 | 0.00 | 54 | 1005.7 |
| 20260508033746 | 27 | 225 | 0.0 | 0.0 | 0.00 | 0.00 | 0.00 | 54 | 1005.7 |
| 20260508033235 | 27 | 225 | 0.0 | 0.0 | 0.00 | 0.00 | 0.00 | 54 | 1005.7 |
| 20260508032725 | 27 | 225 | 0.0 | 0.0 | 0.00 | 0.00 | 0.00 | 54 | 1005.9 |
| 20260508032214 | 27 | 153 | 0.0 | 0.0 | 0.00 | 0.00 | 0.00 | 54 | 1006.0 |
| 20260508031703 | 27 | 135 | 0.0 | 0.0 | 0.00 | 0.00 | 0.00 | 54 | 1005.9 |
| 20260508031153 | 27 | 135 | 0.0 | 0.0 | 0.00 | 0.00 | 0.00 | 54 | 1006.1 |
| 20260508030642 | 27 | 135 | 0.0 | 0.0 | 0.00 | 0.00 | 0.00 | 54 | 1006.2 |
| 20260508030132 | 27 | 135 | 0.0 | 0.0 | 0.00 | 0.00 | 0.00 | 54 | 1006.4 |
| 20260508025622 | 27 | 135 | 0.0 | 0.0 | 0.00 | 0.00 | 0.00 | 54 | 1006.6 |
| 20260508025111 | 27 | 135 | 0.0 | 0.0 | 0.00 | 0.00 | 0.00 | 54 | 1006.6 |
| 20260508024601 | 27 | 135 | 0.0 | 0.0 | 0.00 | 0.00 | 0.00 | 54 | 1006.5 |
| 20260508024051 | 27 | 135 | 0.0 | 0.0 | 0.00 | 0.00 | 0.00 | 54 | 1006.7 |
| 20260508023540 | 27 | 135 | 0.0 | 0.0 | 0.00 | 0.00 | 0.00 | 54 | 1006.6 |
| 20260508023030 | 27 | 135 | 0.0 | 0.0 | 0.00 | 0.00 | 0.00 | 54 | 1006.6 |
| 20260508022519 | 27 | 135 | 0.0 | 0.0 | 0.00 | 0.00 | 0.00 | 54 | 1006.8 |
| 20260508022008 | 27 | 135 | 0.0 | 0.0 | 0.00 | 0.00 | 0.00 | 54 | 1006.7 |
| 20260508021458 | 27 | 135 | 0.0 | 0.0 | 0.00 | 0.00 | 0.00 | 54 | 1006.7 |
| 20260508020947 | 27 | 135 | 0.0 | 0.0 | 0.00 | 0.00 | 0.00 | 53 | 1006.8 |
| 20260508020436 | 27 | 135 | 0.0 | 0.0 | 0.00 | 0.00 | 0.00 | 53 | 1006.9 |
| 20260508015926 | 27 | 135 | 0.0 | 0.0 | 0.00 | 0.00 | 0.00 | 53 | 1006.9 |
| 20260508015416 | 27 | 135 | 0.0 | 0.0 | 0.00 | 0.00 | 0.00 | 53 | 1006.9 |
| 20260508014905 | 27 | 135 | 0.0 | 0.0 | 0.00 | 0.00 | 0.00 | 53 | 1007.0 |
| 20260508014355 | 27 | 135 | 0.0 | 0.0 | 0.00 | 0.00 | 0.00 | 53 | 1006.9 |
| 20260508013846 | 27 | 135 | 0.0 | 0.0 | 0.00 | 0.00 | 0.00 | 53 | 1007.1 |
| 20260508013336 | 27 | 135 | 0.0 | 0.0 | 0.00 | 0.00 | 0.00 | 53 | 1007.0 |
| 20260508012825 | 27 | 135 | 0.0 | 0.0 | 0.00 | 0.00 | 0.00 | 53 | 1007.0 |
| 20260508012315 | 27 | 135 | 0.0 | 0.0 | 0.00 | 0.00 | 0.00 | 53 | 1007.0 |
| 20260508011805 | 27 | 135 | 0.0 | 0.0 | 0.00 | 0.00 | 0.00 | 53 | 1007.0 |
| 20260508011255 | 27 | 135 | 0.0 | 0.0 | 0.00 | 0.00 | 0.00 | 53 | 1007.0 |
| 20260508010745 | 27 | 135 | 0.0 | 0.0 | 0.00 | 0.00 | 0.00 | 53 | 1007.1 |
| 20260508010234 | 27 | 135 | 1.6 | 0.0 | 0.00 | 0.00 | 0.00 | 53 | 1007.0 |
| 20260508005724 | 27 | 135 | 0.0 | 0.0 | 0.00 | 0.00 | 0.00 | 53 | 1007.0 |
| 20260508005213 | 27 | 135 | 1.6 | 0.0 | 0.00 | 0.00 | 0.00 | 53 | 1006.8 |
| 20260508004703 | 27 | 135 | 0.0 | 0.0 | 0.00 | 0.00 | 0.00 | 53 | 1006.8 |
| 20260508004152 | 28 | 135 | 0.0 | 0.0 | 0.00 | 0.00 | 0.00 | 53 | 1006.7 |
| 20260508003642 | 28 | 135 | 0.0 | 0.0 | 0.00 | 0.00 | 0.00 | 53 | 1006.8 |
| 20260508003132 | 28 | 135 | 0.0 | 0.0 | 0.00 | 0.00 | 0.00 | 53 | 1006.7 |
| 20260508002621 | 28 | 135 | 0.0 | 0.0 | 0.00 | 0.00 | 0.00 | 53 | 1006.6 |
| 20260508002111 | 28 | 135 | 0.0 | 0.0 | 0.00 | 0.00 | 0.00 | 53 | 1006.7 |
| 20260508001601 | 28 | 135 | 0.0 | 0.0 | 0.00 | 0.00 | 0.00 | 53 | 1006.8 |
| 20260508001048 | 28 | 135 | 0.0 | 0.0 | 0.00 | 0.00 | 0.00 | 53 | 1006.7 |
| 20260508000538 | 28 | 135 | 0.0 | 0.0 | 0.00 | 0.00 | 0.00 | 53 | 1006.7 |
| 20260508000027 | 28 | 135 | 0.0 | 0.0 | 0.00 | 0.00 | 0.00 | 53 | 1006.8 |
| 20260507235517 | 28 | 135 | 0.0 | 0.0 | 0.00 | 0.00 | 0.00 | 53 | 1006.8 |
| 20260507235006 | 28 | 135 | 0.0 | 0.0 | 0.00 | 0.00 | 0.00 | 53 | 1007.0 |
| 20260507234456 | 28 | 135 | 0.0 | 0.0 | 0.00 | 0.00 | 0.00 | 53 | 1007.1 |
| 20260507233945 | 28 | 135 | 0.0 | 0.0 | 0.00 | 0.00 | 0.00 | 53 | 1007.3 |
| 20260507233435 | 28 | 135 | 0.0 | 0.0 | 0.00 | 0.00 | 0.00 | 53 | 1007.3 |
| 20260507232924 | 28 | 135 | 0.0 | 0.0 | 0.00 | 0.00 | 0.00 | 53 | 1007.4 |
| 20260507232413 | 28 | 135 | 1.6 | 0.0 | 0.00 | 0.00 | 0.00 | 53 | 1007.5 |
| 20260507231902 | 28 | 135 | 1.6 | 0.0 | 0.00 | 0.00 | 0.00 | 53 | 1007.5 |
| 20260507231351 | 28 | 181 | 8.0 | 0.0 | 0.00 | 0.00 | 0.00 | 53 | 1007.6 |
| 20260507230841 | 28 | 163 | 16.1 | 0.0 | 0.00 | 0.00 | 0.00 | 52 | 1007.5 |
| 20260507230330 | 28 | 169 | 4.8 | 0.0 | 0.00 | 0.00 | 0.00 | 52 | 1007.5 |
| 20260507225820 | 28 | 90 | 0.0 | 0.0 | 0.00 | 0.00 | 0.00 | 52 | 1007.6 |
| 20260507225309 | 28 | 90 | 0.0 | 0.0 | 0.00 | 0.00 | 0.00 | 52 | 1007.7 |
| 20260507224758 | 28 | 90 | 8.0 | 0.0 | 0.00 | 0.00 | 0.00 | 52 | 1007.7 |
| 20260507224247 | 28 | 90 | 0.0 | 0.0 | 0.00 | 0.00 | 0.00 | 52 | 1007.7 |
| 20260507223737 | 28 | 90 | 0.0 | 0.0 | 0.00 | 0.00 | 0.00 | 52 | 1007.7 |
| 20260507223226 | 28 | 90 | 3.2 | 0.0 | 0.00 | 0.00 | 0.00 | 52 | 1007.8 |
| 20260507222716 | 28 | 90 | 0.0 | 0.0 | 0.00 | 0.00 | 0.00 | 52 | 1007.9 |
| 20260507222205 | 28 | 90 | 0.0 | 0.0 | 0.00 | 0.00 | 0.00 | 52 | 1008.0 |
| 20260507221655 | 28 | 90 | 0.0 | 0.0 | 0.00 | 0.00 | 0.00 | 52 | 1007.9 |
| 20260507221144 | 28 | 69 | 8.0 | 0.0 | 0.00 | 0.00 | 0.00 | 51 | 1007.8 |
| 20260507220634 | 28 | 45 | 0.0 | 0.0 | 0.00 | 0.00 | 0.00 | 51 | 1007.9 |
| 20260507220124 | 28 | 45 | 0.0 | 0.0 | 0.00 | 0.00 | 0.00 | 51 | 1007.7 |
| 20260507215613 | 28 | 45 | 0.0 | 0.0 | 0.00 | 0.00 | 0.00 | 51 | 1007.7 |
| 20260507215048 | 28 | 45 | 0.0 | 0.0 | 0.00 | 0.00 | 0.00 | 52 | 1007.8 |
| 20260507214538 | 28 | 45 | 0.0 | 0.0 | 0.00 | 0.00 | 0.00 | 52 | 1007.8 |
| 20260507214027 | 28 | 45 | 0.0 | 0.0 | 0.00 | 0.00 | 0.00 | 52 | 1007.8 |
| 20260507213517 | 28 | 45 | 4.8 | 0.0 | 0.00 | 0.00 | 0.00 | 52 | 1007.7 |
| 20260507205924 | 29 | 45 | 6.4 | 0.0 | 0.00 | 0.00 | 0.00 | 52 | 1007.7 |
| 20260507205414 | 29 | 45 | 0.0 | 0.0 | 0.00 | 0.00 | 0.00 | 52 | 1007.5 |
| 20260507204903 | 29 | 45 | 0.0 | 0.0 | 0.00 | 0.00 | 0.00 | 51 | 1007.5 |
| 20260507204353 | 29 | 45 | 0.0 | 0.0 | 0.00 | 0.00 | 0.00 | 51 | 1007.4 |
| 20260507203842 | 29 | 45 | 0.0 | 0.0 | 0.00 | 0.00 | 0.00 | 51 | 1007.6 |
| 20260507203331 | 29 | 45 | 0.0 | 0.0 | 0.00 | 0.00 | 0.00 | 51 | 1007.5 |
| 20260507202821 | 29 | 45 | 0.0 | 0.0 | 0.00 | 0.00 | 0.00 | 51 | 1007.4 |
| 20260507202311 | 29 | 45 | 0.0 | 0.0 | 0.00 | 0.00 | 0.00 | 51 | 1007.3 |
| 20260507201254 | 29 | 45 | 0.0 | 0.0 | 0.00 | 0.00 | 0.00 | 51 | 1007.0 |
| 20260507200743 | 30 | 45 | 0.0 | 0.0 | 0.00 | 0.00 | 0.00 | 51 | 1006.9 |
| 20260507200233 | 30 | 45 | 0.0 | 0.0 | 0.00 | 0.00 | 0.00 | 51 | 1006.9 |
| 20260507195722 | 30 | 45 | 3.2 | 0.0 | 0.00 | 0.00 | 0.00 | 51 | 1007.0 |
| 20260507195212 | 30 | 45 | 6.4 | 0.0 | 0.00 | 0.00 | 0.00 | 51 | 1007.1 |
| 20260507194701 | 30 | 45 | 0.0 | 0.0 | 0.00 | 0.00 | 0.00 | 51 | 1007.0 |
| 20260507194151 | 30 | 45 | 0.0 | 0.0 | 0.00 | 0.00 | 0.00 | 51 | 1007.0 |
| 20260507193640 | 30 | 45 | 0.0 | 0.0 | 0.00 | 0.00 | 0.00 | 51 | 1006.9 |
| 20260507193129 | 30 | 45 | 0.0 | 0.0 | 0.00 | 0.00 | 0.00 | 50 | 1006.9 |
| 20260507192619 | 30 | 45 | 0.0 | 0.0 | 0.00 | 0.00 | 0.00 | 50 | 1006.8 |
| 20260507192108 | 30 | 45 | 0.0 | 0.0 | 0.00 | 0.00 | 0.00 | 50 | 1006.8 |
| 20260507191558 | 30 | 45 | 0.0 | 0.0 | 0.00 | 0.00 | 0.00 | 49 | 1006.8 |
| 20260507191047 | 30 | 45 | 0.0 | 0.0 | 0.00 | 0.00 | 0.00 | 49 | 1006.8 |
| 20260507185012 | 30 | 45 | 0.0 | 0.0 | 0.00 | 0.00 | 0.00 | 49 | 1006.8 |
| 20260507184501 | 30 | 45 | 0.0 | 0.0 | 0.00 | 0.00 | 0.00 | 48 | 1006.7 |
| 20260507180909 | 30 | 45 | 0.0 | 0.0 | 0.00 | 0.00 | 0.00 | 47 | 1006.7 |
| 20260507180359 | 30 | 45 | 0.0 | 0.0 | 0.00 | 0.00 | 0.00 | 47 | 1006.8 |
| 20260507175848 | 30 | 45 | 0.0 | 0.0 | 0.00 | 0.00 | 0.00 | 46 | 1006.8 |
| 20260507175338 | 30 | 45 | 0.0 | 0.0 | 0.00 | 0.00 | 0.00 | 46 | 1006.7 |
| 20260507174827 | 30 | 45 | 0.0 | 0.0 | 0.00 | 0.00 | 0.00 | 46 | 1006.8 |
| 20260507174316 | 30 | 45 | 0.0 | 0.0 | 0.00 | 0.00 | 0.00 | 45 | 1006.8 |
| 20260507173806 | 30 | 45 | 0.0 | 0.0 | 0.00 | 0.00 | 0.00 | 44 | 1006.9 |
| 20260507173255 | 30 | 45 | 0.0 | 0.0 | 0.00 | 0.00 | 0.00 | 44 | 1006.9 |
| 20260507172744 | 30 | 45 | 1.6 | 0.0 | 0.00 | 0.00 | 0.00 | 43 | 1007.0 |
| 20260507172234 | 30 | 45 | 3.2 | 0.0 | 0.00 | 0.00 | 0.00 | 43 | 1007.0 |
| 20260507171723 | 30 | 45 | 8.0 | 0.0 | 0.00 | 0.00 | 0.00 | 43 | 1007.0 |
| 20260507171212 | 30 | 45 | 19.3 | 0.0 | 0.00 | 0.00 | 0.00 | 42 | 1007.1 |
| 20260507170702 | 30 | 69 | 19.3 | 0.0 | 0.00 | 0.00 | 0.00 | 42 | 1007.2 |
| 20260507170152 | 30 | 45 | 45.1 | 0.0 | 0.00 | 0.00 | 0.00 | 42 | 1007.2 |
| 20260507165641 | 30 | 72 | 24.1 | 0.0 | 0.00 | 0.00 | 0.00 | 42 | 1007.3 |
| 20260507165131 | 30 | 45 | 64.4 | 0.0 | 0.00 | 0.00 | 0.00 | 42 | 1007.3 |
| 20260507164621 | 30 | 49 | 53.1 | 0.0 | 0.00 | 0.00 | 0.00 | 43 | 1007.5 |
| 20260507164110 | 29 | 53 | 62.8 | 0.0 | 0.00 | 0.00 | 0.00 | 44 | 1007.5 |
| 20260507163600 | 29 | 108 | 43.5 | 0.0 | 0.00 | 0.00 | 0.00 | 44 | 1007.5 |
| 20260507163049 | 29 | 45 | 54.7 | 0.0 | 0.00 | 0.00 | 0.00 | 44 | 1007.7 |
| 20260507162538 | 29 | 147 | 43.5 | 0.0 | 0.00 | 0.00 | 0.00 | 44 | 1007.7 |
| 20260507162027 | 29 | 189 | 27.4 | 0.0 | 0.00 | 0.00 | 0.00 | 44 | 1007.8 |
| 20260507161517 | 28 | 51 | 45.1 | 0.0 | 0.00 | 0.00 | 0.00 | 45 | 1007.9 |
| 20260507161007 | 28 | 60 | 53.1 | 0.0 | 0.00 | 0.00 | 0.00 | 45 | 1008.1 |
| 20260507160457 | 28 | 57 | 45.1 | 0.0 | 0.00 | 0.00 | 0.00 | 46 | 1008.2 |
| 20260507155946 | 28 | 48 | 33.8 | 0.0 | 0.00 | 0.00 | 0.00 | 45 | 1008.4 |
| 20260507155436 | 28 | 63 | 64.4 | 0.0 | 0.00 | 0.00 | 0.00 | 46 | 1008.5 |
| 20260507154925 | 28 | 62 | 64.4 | 0.0 | 0.00 | 0.00 | 0.00 | 46 | 1008.5 |
| 20260507154414 | 28 | 50 | 64.4 | 0.0 | 0.00 | 0.00 | 0.00 | 46 | 1008.7 |
| 20260507153904 | 28 | 67 | 54.7 | 0.0 | 0.00 | 0.00 | 0.00 | 46 | 1009.0 |
| 20260507153354 | 28 | 49 | 49.9 | 0.0 | 0.00 | 0.00 | 0.00 | 47 | 1009.1 |
| 20260507152844 | 28 | 104 | 37.0 | 0.0 | 0.00 | 0.00 | 0.00 | 47 | 1009.3 |
| 20260507152333 | 28 | 45 | 35.4 | 0.0 | 0.00 | 0.00 | 0.00 | 47 | 1009.5 |
| 20260507151823 | 28 | 45 | 40.2 | 0.0 | 0.00 | 0.00 | 0.00 | 48 | 1009.7 |
| 20260507151312 | 28 | 45 | 14.5 | 0.0 | 0.00 | 0.00 | 0.00 | 48 | 1009.8 |
| 20260507150802 | 28 | 123 | 6.4 | 0.0 | 0.00 | 0.00 | 0.00 | 48 | 1010.0 |
| 20260507150252 | 27 | 73 | 35.4 | 0.0 | 0.00 | 0.00 | 0.00 | 49 | 1010.3 |
| 20260507145741 | 27 | 93 | 16.1 | 0.0 | 0.00 | 0.00 | 0.00 | 49 | 1010.4 |
| 20260507145231 | 27 | 93 | 19.3 | 0.0 | 0.00 | 0.00 | 0.00 | 49 | 1010.5 |
| 20260507144720 | 27 | 45 | 11.3 | 0.0 | 0.00 | 0.00 | 0.00 | 50 | 1010.6 |
| 20260507144209 | 27 | 45 | 16.1 | 0.0 | 0.00 | 0.00 | 0.00 | 50 | 1010.8 |
| 20260507143659 | 27 | 45 | 14.5 | 0.0 | 0.00 | 0.00 | 0.00 | 50 | 1011.0 |
| 20260507143148 | 27 | 52 | 25.7 | 0.0 | 0.00 | 0.00 | 0.00 | 50 | 1011.1 |
| 20260507142637 | 27 | 45 | 35.4 | 0.0 | 0.00 | 0.00 | 0.00 | 51 | 1011.3 |
| 20260507142126 | 27 | 75 | 16.1 | 0.0 | 0.00 | 0.00 | 0.00 | 52 | 1011.3 |
| 20260507141616 | 27 | 45 | 0.0 | 0.0 | 0.00 | 0.00 | 0.00 | 52 | 1011.4 |
| 20260507141106 | 27 | 45 | 12.9 | 0.0 | 0.00 | 0.00 | 0.00 | 53 | 1011.6 |
| 20260507140556 | 27 | 261 | 0.0 | 0.0 | 0.00 | 0.00 | 0.00 | 53 | 1011.7 |
| 20260507140045 | 27 | 299 | 0.0 | 0.0 | 0.00 | 0.00 | 0.00 | 54 | 1011.8 |
| 20260507135535 | 26 | 284 | 1.6 | 0.0 | 0.00 | 0.00 | 0.00 | 54 | 1011.9 |
| 20260507135024 | 26 | 284 | 0.0 | 0.0 | 0.00 | 0.00 | 0.00 | 54 | 1011.9 |
| 20260507134514 | 26 | 284 | 11.3 | 0.0 | 0.00 | 0.00 | 0.00 | 55 | 1011.9 |
| 20260507134003 | 26 | 284 | 1.6 | 0.0 | 0.00 | 0.00 | 0.00 | 55 | 1011.9 |
| 20260507133452 | 26 | 284 | 9.7 | 0.0 | 0.00 | 0.00 | 0.00 | 55 | 1012.1 |
| 20260507132942 | 26 | 284 | 0.0 | 0.0 | 0.00 | 0.00 | 0.00 | 55 | 1012.2 |
| 20260507132431 | 26 | 286 | 0.0 | 0.0 | 0.00 | 0.00 | 0.00 | 55 | 1012.4 |
| 20260507131921 | 26 | 243 | 4.8 | 0.0 | 0.00 | 0.00 | 0.00 | 55 | 1012.5 |
| 20260507131410 | 26 | 81 | 20.9 | 0.0 | 0.00 | 0.00 | 0.00 | 55 | 1012.4 |
| 20260507130900 | 26 | 134 | 24.1 | 0.0 | 0.00 | 0.00 | 0.00 | 55 | 1012.5 |
| 20260507130349 | 26 | 279 | 12.9 | 0.0 | 0.00 | 0.00 | 0.00 | 55 | 1012.7 |
| 20260507125839 | 26 | 49 | 19.3 | 0.0 | 0.00 | 0.00 | 0.00 | 55 | 1012.7 |
| 20260507125328 | 26 | 45 | 24.1 | 0.0 | 0.00 | 0.00 | 0.00 | 55 | 1012.8 |
| 20260507124817 | 25 | 45 | 24.1 | 0.0 | 0.00 | 0.00 | 0.00 | 56 | 1013.0 |
| 20260507124307 | 25 | 191 | 14.5 | 0.0 | 0.00 | 0.00 | 0.00 | 56 | 1013.1 |
| 20260507123756 | 25 | 263 | 1.6 | 0.0 | 0.00 | 0.00 | 0.00 | 56 | 1013.2 |
| 20260507123245 | 25 | 55 | 0.0 | 0.0 | 0.00 | 0.00 | 0.00 | 56 | 1013.3 |
| 20260507122735 | 25 | 45 | 0.0 | 0.0 | 0.00 | 0.00 | 0.00 | 56 | 1013.3 |
| 20260507122225 | 25 | 45 | 0.0 | 0.0 | 0.00 | 0.00 | 0.00 | 56 | 1013.4 |
| 20260507121715 | 25 | 45 | 0.0 | 0.0 | 0.00 | 0.00 | 0.00 | 56 | 1013.5 |
| 20260507121204 | 25 | 45 | 0.0 | 0.0 | 0.00 | 0.00 | 0.00 | 56 | 1013.7 |
| 20260507120654 | 25 | 45 | 0.0 | 0.0 | 0.00 | 0.00 | 0.00 | 56 | 1013.7 |
| 20260507120143 | 25 | 45 | 0.0 | 0.0 | 0.00 | 0.00 | 0.00 | 56 | 1013.7 |
| 20260507115126 | 25 | 45 | 0.0 | 0.0 | 0.00 | 0.00 | 0.00 | 56 | 1013.8 |
| 20260507114616 | 25 | 45 | 0.0 | 0.0 | 0.00 | 0.00 | 0.00 | 56 | 1013.9 |
| 20260507114105 | 25 | 45 | 0.0 | 0.0 | 0.00 | 0.00 | 0.00 | 56 | 1013.9 |
| 20260507113555 | 25 | 45 | 0.0 | 0.0 | 0.00 | 0.00 | 0.00 | 56 | 1013.9 |
| 20260507113044 | 25 | 45 | 0.0 | 0.0 | 0.00 | 0.00 | 0.00 | 56 | 1013.9 |
| 20260507112533 | 25 | 45 | 0.0 | 0.0 | 0.00 | 0.00 | 0.00 | 56 | 1013.8 |
| 20260507112022 | 25 | 45 | 0.0 | 0.0 | 0.00 | 0.00 | 0.00 | 56 | 1013.9 |
| 20260507111512 | 24 | 45 | 0.0 | 0.0 | 0.00 | 0.00 | 0.00 | 56 | 1013.9 |
| 20260507111001 | 24 | 45 | 0.0 | 0.0 | 0.00 | 0.00 | 0.00 | 56 | 1013.9 |
| 20260507105430 | 24 | 45 | 0.0 | 0.0 | 0.00 | 0.00 | 0.00 | 56 | 1013.8 |
| 20260507104918 | 24 | 45 | 0.0 | 0.0 | 0.00 | 0.00 | 0.00 | 56 | 1013.8 |
| 20260507104354 | 24 | 45 | 0.0 | 0.0 | 0.00 | 0.00 | 0.00 | 56 | 1013.7 |
| 20260507103844 | 24 | 45 | 8.0 | 0.0 | 0.00 | 0.00 | 0.00 | 56 | 1013.7 |
| 20260507103334 | 24 | 45 | 0.0 | 0.0 | 0.00 | 0.00 | 0.00 | 56 | 1013.6 |
| 20260507102823 | 24 | 45 | 16.1 | 0.0 | 0.00 | 0.00 | 0.00 | 56 | 1013.7 |
| 20260507102313 | 24 | 45 | 3.2 | 0.0 | 0.00 | 0.00 | 0.00 | 56 | 1013.7 |
| 20260507101802 | 25 | 45 | 33.8 | 0.0 | 0.00 | 0.00 | 0.00 | 56 | 1013.7 |
| 20260507101252 | 25 | 45 | 0.0 | 0.0 | 0.00 | 0.00 | 0.00 | 56 | 1013.7 |
| 20260507100741 | 25 | 45 | 0.0 | 0.0 | 0.00 | 0.00 | 0.00 | 56 | 1013.8 |
| 20260507100231 | 25 | 45 | 1.6 | 0.0 | 0.00 | 0.00 | 0.00 | 56 | 1013.8 |
| 20260507095719 | 25 | 45 | 0.0 | 0.0 | 0.00 | 0.00 | 0.00 | 56 | 1013.8 |
| 20260507095209 | 25 | 45 | 0.0 | 0.0 | 0.00 | 0.00 | 0.00 | 56 | 1013.8 |
| 20260507094658 | 25 | 45 | 0.0 | 0.0 | 0.00 | 0.00 | 0.00 | 56 | 1013.7 |
| 20260507094147 | 25 | 45 | 0.0 | 0.0 | 0.00 | 0.00 | 0.00 | 56 | 1013.6 |
| 20260507093637 | 25 | 45 | 3.2 | 0.0 | 0.00 | 0.00 | 0.00 | 56 | 1013.7 |
| 20260507093126 | 25 | 45 | 0.0 | 0.0 | 0.00 | 0.00 | 0.00 | 56 | 1013.4 |
| 20260507092615 | 25 | 45 | 0.0 | 0.0 | 0.00 | 0.00 | 0.00 | 56 | 1013.6 |
| 20260507092105 | 25 | 45 | 0.0 | 0.0 | 0.00 | 0.00 | 0.00 | 56 | 1013.6 |
| 20260507091555 | 25 | 45 | 0.0 | 0.0 | 0.00 | 0.00 | 0.00 | 56 | 1013.6 |
| 20260507091044 | 25 | 45 | 0.0 | 0.0 | 0.00 | 0.00 | 0.00 | 56 | 1013.5 |
| 20260507090533 | 25 | 45 | 1.6 | 0.0 | 0.00 | 0.00 | 0.00 | 56 | 1013.5 |
| 20260507090023 | 25 | 45 | 4.8 | 0.0 | 0.00 | 0.00 | 0.00 | 56 | 1013.6 |
| 20260507085513 | 25 | 45 | 29.0 | 0.0 | 0.00 | 0.00 | 0.00 | 56 | 1013.6 |
| 20260507085003 | 25 | 45 | 40.2 | 0.0 | 0.00 | 0.00 | 0.00 | 56 | 1013.6 |
| 20260507084452 | 25 | 45 | 30.6 | 0.0 | 0.00 | 0.00 | 0.00 | 56 | 1013.7 |
| 20260507083942 | 25 | 45 | 43.5 | 0.0 | 0.00 | 0.00 | 0.00 | 55 | 1013.7 |
| 20260507083432 | 25 | 45 | 43.5 | 0.0 | 0.00 | 0.00 | 0.00 | 55 | 1013.6 |
| 20260507082922 | 25 | 45 | 20.9 | 0.0 | 0.00 | 0.00 | 0.00 | 55 | 1013.7 |
| 20260507082411 | 25 | 45 | 48.3 | 0.0 | 0.00 | 0.00 | 0.00 | 55 | 1013.7 |
| 20260507081901 | 25 | 45 | 49.9 | 0.0 | 0.00 | 0.00 | 0.00 | 55 | 1013.6 |
| 20260507081351 | 25 | 45 | 30.6 | 0.0 | 0.00 | 0.00 | 0.00 | 55 | 1013.7 |
| 20260507080841 | 25 | 45 | 30.6 | 0.0 | 0.00 | 0.00 | 0.00 | 55 | 1013.7 |
| 20260507080331 | 25 | 45 | 32.2 | 0.0 | 0.00 | 0.00 | 0.00 | 55 | 1013.7 |
| 20260507075820 | 25 | 45 | 20.9 | 0.0 | 0.00 | 0.00 | 0.00 | 55 | 1013.6 |
| 20260507075310 | 25 | 45 | 0.0 | 0.0 | 0.00 | 0.00 | 0.00 | 55 | 1013.5 |
| 20260507074800 | 25 | 45 | 11.3 | 0.0 | 0.00 | 0.00 | 0.00 | 55 | 1013.5 |
| 20260507074250 | 25 | 45 | 11.3 | 0.0 | 0.00 | 0.00 | 0.00 | 55 | 1013.5 |
| 20260507073740 | 25 | 45 | 1.6 | 0.0 | 0.00 | 0.00 | 0.00 | 55 | 1013.5 |
| 20260507073229 | 25 | 45 | 8.0 | 0.0 | 0.00 | 0.00 | 0.00 | 55 | 1013.6 |
| 20260507072718 | 25 | 45 | 4.8 | 0.0 | 0.00 | 0.00 | 0.00 | 55 | 1013.7 |
| 20260507072207 | 25 | 45 | 14.5 | 0.0 | 0.00 | 0.00 | 0.00 | 55 | 1013.7 |
| 20260507071657 | 25 | 45 | 22.5 | 0.0 | 0.00 | 0.00 | 0.00 | 55 | 1013.8 |
| 20260507071147 | 25 | 45 | 0.0 | 0.0 | 0.00 | 0.00 | 0.00 | 55 | 1013.8 |
| 20260507070636 | 25 | 45 | 20.9 | 0.0 | 0.00 | 0.00 | 0.00 | 55 | 1013.7 |
| 20260507070126 | 25 | 45 | 8.0 | 0.0 | 0.00 | 0.00 | 0.00 | 55 | 1013.8 |
| 20260507065615 | 25 | 45 | 19.3 | 0.0 | 0.00 | 0.00 | 0.00 | 55 | 1013.8 |
| 20260507065105 | 25 | 45 | 9.7 | 0.0 | 0.00 | 0.00 | 0.00 | 55 | 1013.9 |
| 20260507064554 | 25 | 45 | 0.0 | 0.0 | 0.00 | 0.00 | 0.00 | 55 | 1013.9 |
| 20260507064044 | 25 | 45 | 0.0 | 0.0 | 0.00 | 0.00 | 0.00 | 55 | 1014.0 |
| 20260507063534 | 25 | 45 | 0.0 | 0.0 | 0.00 | 0.00 | 0.00 | 55 | 1014.0 |
| 20260507063024 | 25 | 45 | 0.0 | 0.0 | 0.00 | 0.00 | 0.00 | 55 | 1014.0 |
| 20260507062513 | 25 | 45 | 0.0 | 0.0 | 0.00 | 0.00 | 0.00 | 55 | 1014.0 |
| 20260507062003 | 25 | 45 | 0.0 | 0.0 | 0.00 | 0.00 | 0.00 | 55 | 1014.1 |
| 20260507061452 | 25 | 45 | 4.8 | 0.0 | 0.00 | 0.00 | 0.00 | 55 | 1014.3 |
| 20260507060941 | 25 | 45 | 0.0 | 0.0 | 0.00 | 0.00 | 0.00 | 55 | 1014.3 |
| 20260507060431 | 25 | 45 | 0.0 | 0.0 | 0.00 | 0.00 | 0.00 | 55 | 1014.4 |
| 20260507055920 | 25 | 55 | 22.5 | 0.0 | 0.00 | 0.00 | 0.00 | 55 | 1014.4 |
| 20260507055409 | 25 | 62 | 33.8 | 0.0 | 0.00 | 0.00 | 0.00 | 55 | 1014.5 |
| 20260507054859 | 25 | 45 | 35.4 | 0.0 | 0.00 | 0.00 | 0.00 | 55 | 1014.7 |
| 20260507054348 | 25 | 45 | 25.7 | 0.0 | 0.00 | 0.00 | 0.00 | 55 | 1014.8 |
| 20260507053837 | 25 | 45 | 43.5 | 0.0 | 0.00 | 0.00 | 0.00 | 55 | 1014.8 |
| 20260507053327 | 26 | 45 | 43.5 | 0.0 | 0.00 | 0.00 | 0.00 | 55 | 1014.8 |
| 20260507052817 | 26 | 45 | 38.6 | 0.0 | 0.00 | 0.00 | 0.00 | 55 | 1014.9 |
| 20260507052307 | 26 | 62 | 49.9 | 0.0 | 0.00 | 0.00 | 0.00 | 55 | 1014.9 |
| 20260507051756 | 26 | 45 | 38.6 | 0.0 | 0.00 | 0.00 | 0.00 | 55 | 1015.1 |
| 20260507051246 | 26 | 45 | 37.0 | 0.0 | 0.00 | 0.00 | 0.00 | 55 | 1015.1 |
| 20260507050736 | 26 | 45 | 51.5 | 0.0 | 0.00 | 0.00 | 0.00 | 55 | 1015.3 |
| 20260507050225 | 26 | 48 | 54.7 | 0.0 | 0.00 | 0.00 | 0.00 | 54 | 1015.3 |
| 20260507045715 | 26 | 45 | 59.5 | 0.0 | 0.00 | 0.00 | 0.00 | 54 | 1015.3 |
| 20260507045205 | 26 | 45 | 56.3 | 0.0 | 0.00 | 0.00 | 0.00 | 54 | 1015.5 |
| 20260507044654 | 26 | 45 | 54.7 | 0.0 | 0.00 | 0.00 | 0.00 | 54 | 1015.6 |
| 20260507044144 | 26 | 45 | 40.2 | 0.0 | 0.00 | 0.00 | 0.00 | 54 | 1015.7 |
| 20260507043633 | 26 | 45 | 41.8 | 0.0 | 0.00 | 0.00 | 0.00 | 54 | 1015.9 |
| 20260507043123 | 26 | 45 | 46.7 | 0.0 | 0.00 | 0.00 | 0.00 | 54 | 1015.9 |
| 20260507042558 | 26 | 45 | 25.7 | 0.0 | 0.00 | 0.00 | 0.00 | 54 | 1015.9 |
| 20260507042047 | 26 | 45 | 25.7 | 0.0 | 0.00 | 0.00 | 0.00 | 54 | 1015.9 |
| 20260507041537 | 26 | 45 | 29.0 | 0.0 | 0.00 | 0.00 | 0.00 | 54 | 1015.9 |
| 20260507041026 | 26 | 45 | 32.2 | 0.0 | 0.00 | 0.00 | 0.00 | 54 | 1016.0 |
| 20260507040516 | 26 | 45 | 37.0 | 0.0 | 0.00 | 0.00 | 0.00 | 54 | 1016.0 |
| 20260507040005 | 26 | 45 | 25.7 | 0.0 | 0.00 | 0.00 | 0.00 | 54 | 1016.0 |
| 20260507035455 | 26 | 45 | 49.9 | 0.0 | 0.00 | 0.00 | 0.00 | 54 | 1016.0 |